| time (UTC) | temp F | wind direction | speed knots | gust knots | rain 1hr in | rain 24hr in | rain mn in | humidity % | barometer mb |
| 20260503072009 | 55 | 239 | 0.0 | 4.3 | 0.00 | 0.00 | 0.00 | 47 | 1017.2 |
| 20260503071527 | 55 | 124 | 0.0 | 2.6 | 0.00 | 0.00 | 0.00 | 48 | 1017.2 |
| 20260503071007 | 55 | 173 | 0.0 | 2.6 | 0.00 | 0.00 | 0.00 | 48 | 1017.2 |
| 20260503070508 | 55 | 115 | 0.0 | 2.6 | 0.00 | 0.00 | 0.00 | 48 | 1017.2 |
| 20260503055011 | 54 | 64 | 0.0 | 0.9 | 0.00 | 0.00 | 0.00 | 49 | 1017.1 |
| 20260503054519 | 54 | 64 | 0.0 | 0.9 | 0.00 | 0.00 | 0.00 | 51 | 1017.0 |
| 20260503054003 | 54 | 61 | 0.0 | 0.9 | 0.00 | 0.00 | 0.00 | 48 | 1017.0 |
| 20260503053506 | 54 | 53 | 0.0 | 0.9 | 0.00 | 0.00 | 0.00 | 50 | 1017.1 |
| 20260503053027 | 54 | 47 | 0.0 | 0.9 | 0.00 | 0.00 | 0.00 | 49 | 1017.0 |
| 20260503052507 | 54 | 46 | 0.0 | 0.9 | 0.00 | 0.00 | 0.00 | 51 | 1017.0 |
| 20260503052010 | 54 | 96 | 0.0 | 0.9 | 0.00 | 0.00 | 0.00 | 50 | 1017.0 |
| 20260503051518 | 54 | 90 | 0.0 | 0.9 | 0.00 | 0.00 | 0.00 | 52 | 1017.0 |
| 20260503051005 | 54 | 101 | 0.0 | 0.9 | 0.00 | 0.00 | 0.00 | 52 | 1017.0 |
| 20260503050511 | 54 | 101 | 0.0 | 0.9 | 0.00 | 0.00 | 0.00 | 52 | 1017.1 |
| 20260503050024 | 54 | 101 | 0.0 | 0.9 | 0.00 | 0.00 | 0.00 | 51 | 1017.1 |
| 20260503045511 | 54 | 101 | 0.0 | 0.9 | 0.00 | 0.00 | 0.00 | 53 | 1017.1 |
| 20260503045010 | 54 | 101 | 0.0 | 0.9 | 0.00 | 0.00 | 0.00 | 52 | 1017.1 |
| 20260503044528 | 54 | 101 | 0.0 | 1.7 | 0.00 | 0.00 | 0.00 | 51 | 1017.1 |
| 20260503044010 | 55 | 56 | 0.0 | 1.7 | 0.00 | 0.00 | 0.00 | 52 | 1017.1 |
| 20260503043506 | 56 | 134 | 0.0 | 1.7 | 0.00 | 0.00 | 0.00 | 50 | 1017.1 |
| 20260503043019 | 56 | 134 | 0.0 | 6.1 | 0.00 | 0.00 | 0.00 | 49 | 1017.1 |
| 20260503042503 | 56 | 97 | 0.0 | 7.0 | 0.00 | 0.00 | 0.00 | 49 | 1017.1 |
| 20260503042010 | 56 | 171 | 0.9 | 10.4 | 0.00 | 0.00 | 0.00 | 49 | 1017.0 |
| 20260503041517 | 56 | 139 | 2.6 | 13.0 | 0.00 | 0.00 | 0.00 | 50 | 1017.0 |
| 20260503041008 | 57 | 160 | 7.0 | 13.0 | 0.00 | 0.00 | 0.00 | 46 | 1017.2 |
| 20260503040506 | 57 | 153 | 1.7 | 9.6 | 0.00 | 0.00 | 0.00 | 44 | 1016.6 |
| 20260503040031 | 57 | 192 | 1.7 | 6.1 | 0.00 | 0.00 | 0.00 | 43 | 1016.5 |
| 20260503035506 | 57 | 71 | 0.0 | 0.9 | 0.00 | 0.00 | 0.00 | 42 | 1016.2 |
| 20260503035010 | 57 | 65 | 0.0 | 0.9 | 0.00 | 0.00 | 0.00 | 44 | 1016.2 |
| 20260503034524 | 56 | 28 | 0.0 | 3.5 | 0.00 | 0.00 | 0.00 | 43 | 1016.0 |
| 20260503034008 | 56 | 30 | 0.0 | 3.5 | 0.00 | 0.00 | 0.00 | 43 | 1016.0 |
| 20260503033512 | 56 | 55 | 0.0 | 2.6 | 0.00 | 0.00 | 0.00 | 43 | 1016.0 |
| 20260503033030 | 56 | 81 | 0.0 | 2.6 | 0.00 | 0.00 | 0.00 | 42 | 1015.8 |
| 20260503032510 | 57 | 32 | 0.0 | 1.7 | 0.00 | 0.00 | 0.00 | 42 | 1015.8 |
| 20260503032012 | 57 | 59 | 0.0 | 3.5 | 0.00 | 0.00 | 0.00 | 42 | 1015.8 |
| 20260503031516 | 57 | 72 | 0.0 | 3.5 | 0.00 | 0.00 | 0.00 | 42 | 1015.7 |
| 20260503031005 | 57 | 136 | 0.0 | 2.6 | 0.00 | 0.00 | 0.00 | 42 | 1015.7 |
| 20260503030507 | 58 | 360 | 0.9 | 5.2 | 0.00 | 0.00 | 0.00 | 42 | 1015.6 |
| 20260503030024 | 58 | 360 | 0.9 | 5.2 | 0.00 | 0.00 | 0.00 | 41 | 1015.6 |
| 20260503025508 | 59 | 5 | 0.0 | 4.3 | 0.00 | 0.00 | 0.00 | 40 | 1015.6 |
| 20260503025008 | 59 | 136 | 0.0 | 7.0 | 0.00 | 0.00 | 0.00 | 40 | 1015.6 |
| 20260503024525 | 59 | 134 | 0.9 | 7.0 | 0.00 | 0.00 | 0.00 | 40 | 1015.5 |
| 20260503024007 | 60 | 201 | 0.0 | 6.1 | 0.00 | 0.00 | 0.00 | 38 | 1015.6 |
| 20260503023508 | 60 | 130 | 0.0 | 6.1 | 0.00 | 0.00 | 0.00 | 38 | 1015.8 |
| 20260503023028 | 60 | 171 | 0.9 | 6.1 | 0.00 | 0.00 | 0.00 | 37 | 1015.8 |
| 20260503022507 | 61 | 351 | 0.0 | 3.5 | 0.00 | 0.00 | 0.00 | 36 | 1015.9 |
| 20260503022013 | 61 | 217 | 0.9 | 3.5 | 0.00 | 0.00 | 0.00 | 35 | 1015.8 |
| 20260503021526 | 61 | 116 | 0.0 | 8.7 | 0.00 | 0.00 | 0.00 | 37 | 1015.7 |
| 20260503021004 | 61 | 105 | 0.9 | 8.7 | 0.00 | 0.00 | 0.00 | 35 | 1015.6 |
| 20260503020504 | 61 | 116 | 2.6 | 18.2 | 0.00 | 0.00 | 0.00 | 36 | 1015.5 |
| 20260503020002 | 61 | 324 | 4.3 | 18.2 | 0.00 | 0.00 | 0.00 | 33 | 1015.4 |
| 20260503015504 | 61 | 5 | 3.5 | 8.7 | 0.00 | 0.00 | 0.00 | 33 | 1015.2 |
| 20260503015004 | 61 | 15 | 1.7 | 8.7 | 0.00 | 0.00 | 0.00 | 34 | 1015.1 |
| 20260503014506 | 61 | 117 | 2.6 | 8.7 | 0.00 | 0.00 | 0.00 | 35 | 1015.4 |
| 20260503014003 | 62 | 238 | 2.6 | 7.0 | 0.00 | 0.00 | 0.00 | 35 | 1015.4 |
| 20260503013506 | 62 | 119 | 2.6 | 7.8 | 0.00 | 0.00 | 0.00 | 35 | 1015.2 |
| 20260503013006 | 62 | 98 | 1.7 | 8.7 | 0.00 | 0.00 | 0.00 | 35 | 1015.1 |
| 20260503012503 | 62 | 173 | 1.7 | 9.6 | 0.00 | 0.00 | 0.00 | 35 | 1015.2 |
| 20260503012005 | 62 | 68 | 2.6 | 9.6 | 0.00 | 0.00 | 0.00 | 35 | 1015.2 |
| 20260503011503 | 62 | 159 | 2.6 | 13.9 | 0.00 | 0.00 | 0.00 | 34 | 1015.1 |
| 20260503011004 | 63 | 5 | 2.6 | 13.9 | 0.00 | 0.00 | 0.00 | 34 | 1015.1 |
| 20260503010504 | 64 | 188 | 4.3 | 11.3 | 0.00 | 0.00 | 0.00 | 32 | 1015.2 |
| 20260503010004 | 65 | 190 | 1.7 | 6.1 | 0.00 | 0.00 | 0.00 | 31 | 1015.1 |
| 20260503005504 | 66 | 61 | 1.7 | 7.0 | 0.00 | 0.00 | 0.00 | 31 | 1014.9 |
| 20260503005005 | 66 | 132 | 0.9 | 9.6 | 0.00 | 0.00 | 0.00 | 31 | 1015.0 |
| 20260503004506 | 67 | 204 | 2.6 | 9.6 | 0.00 | 0.00 | 0.00 | 33 | 1014.9 |
| 20260503004002 | 67 | 145 | 1.7 | 14.8 | 0.00 | 0.00 | 0.00 | 32 | 1014.7 |
| 20260503003502 | 66 | 331 | 1.7 | 14.8 | 0.00 | 0.00 | 0.00 | 32 | 1014.8 |
| 20260503003003 | 66 | 203 | 4.3 | 7.8 | 0.00 | 0.00 | 0.00 | 31 | 1014.9 |
| 20260503002503 | 65 | 355 | 0.9 | 6.1 | 0.00 | 0.00 | 0.00 | 32 | 1014.9 |
| 20260503002008 | 65 | 67 | 1.7 | 9.6 | 0.00 | 0.00 | 0.00 | 33 | 1014.9 |
| 20260503001503 | 65 | 309 | 0.9 | 13.9 | 0.00 | 0.00 | 0.00 | 32 | 1014.9 |
| 20260503001005 | 66 | 174 | 7.8 | 13.9 | 0.00 | 0.00 | 0.00 | 32 | 1014.9 |
| 20260503000505 | 66 | 159 | 3.5 | 7.0 | 0.00 | 0.00 | 0.00 | 30 | 1014.9 |
| 20260503000007 | 66 | 115 | 2.6 | 18.2 | 0.00 | 0.00 | 0.00 | 31 | 1015.0 |
| 20260502235504 | 66 | 171 | 8.7 | 18.2 | 0.00 | 0.00 | 0.00 | 31 | 1015.0 |
| 20260502235004 | 66 | 202 | 6.1 | 13.9 | 0.00 | 0.00 | 0.00 | 31 | 1015.1 |
| 20260502234512 | 66 | 305 | 5.2 | 15.6 | 0.00 | 0.00 | 0.00 | 30 | 1015.0 |
| 20260502234004 | 66 | 160 | 7.8 | 15.6 | 0.00 | 0.00 | 0.00 | 30 | 1015.1 |
| 20260502233504 | 66 | 207 | 3.5 | 15.6 | 0.00 | 0.00 | 0.00 | 30 | 1015.1 |
| 20260502233006 | 66 | 207 | 1.7 | 15.6 | 0.00 | 0.00 | 0.00 | 31 | 1015.0 |
| 20260502232503 | 67 | 195 | 5.2 | 13.0 | 0.00 | 0.00 | 0.00 | 28 | 1015.2 |
| 20260502232005 | 67 | 223 | 5.2 | 12.2 | 0.00 | 0.00 | 0.00 | 31 | 1015.3 |
| 20260502231504 | 67 | 198 | 5.2 | 12.2 | 0.00 | 0.00 | 0.00 | 29 | 1015.3 |
| 20260502231004 | 68 | 57 | 2.6 | 7.0 | 0.00 | 0.00 | 0.00 | 30 | 1015.4 |
| 20260502230504 | 67 | 145 | 1.7 | 10.4 | 0.00 | 0.00 | 0.00 | 30 | 1015.4 |
| 20260502230007 | 67 | 189 | 3.5 | 10.4 | 0.00 | 0.00 | 0.00 | 34 | 1015.6 |
| 20260502225504 | 66 | 123 | 2.6 | 13.0 | 0.00 | 0.00 | 0.00 | 33 | 1015.6 |
| 20260502225004 | 67 | 21 | 1.7 | 13.9 | 0.00 | 0.00 | 0.00 | 30 | 1015.7 |
| 20260502224507 | 67 | 169 | 7.8 | 13.9 | 0.00 | 0.00 | 0.00 | 33 | 1015.9 |
| 20260502224004 | 67 | 111 | 2.6 | 13.0 | 0.00 | 0.00 | 0.00 | 34 | 1015.9 |
| 20260502223504 | 66 | 230 | 3.5 | 13.9 | 0.00 | 0.00 | 0.00 | 32 | 1016.0 |
| 20260502223007 | 66 | 140 | 3.5 | 14.8 | 0.00 | 0.00 | 0.00 | 35 | 1016.1 |
| 20260502222504 | 65 | 222 | 7.8 | 14.8 | 0.00 | 0.00 | 0.00 | 35 | 1016.2 |
| 20260502222005 | 65 | 122 | 1.7 | 11.3 | 0.00 | 0.00 | 0.00 | 32 | 1016.3 |
| 20260502221508 | 66 | 201 | 6.1 | 13.0 | 0.00 | 0.00 | 0.00 | 32 | 1016.4 |
| 20260502221003 | 67 | 196 | 5.2 | 15.6 | 0.00 | 0.00 | 0.00 | 34 | 1016.3 |
| 20260502220503 | 67 | 186 | 7.8 | 15.6 | 0.00 | 0.00 | 0.00 | 33 | 1016.5 |
| 20260502220003 | 66 | 215 | 6.1 | 13.9 | 0.00 | 0.00 | 0.00 | 34 | 1016.5 |
| 20260502215505 | 66 | 213 | 7.0 | 14.8 | 0.00 | 0.00 | 0.00 | 33 | 1016.5 |
| 20260502215004 | 65 | 234 | 2.6 | 14.8 | 0.00 | 0.00 | 0.00 | 33 | 1016.5 |
| 20260502214521 | 65 | 181 | 8.7 | 14.8 | 0.00 | 0.00 | 0.00 | 32 | 1016.7 |
| 20260502214004 | 65 | 190 | 7.0 | 16.5 | 0.00 | 0.00 | 0.00 | 33 | 1016.6 |
| 20260502213504 | 66 | 211 | 7.0 | 16.5 | 0.00 | 0.00 | 0.00 | 35 | 1016.7 |
| 20260502213008 | 66 | 171 | 7.8 | 16.5 | 0.00 | 0.00 | 0.00 | 36 | 1016.6 |
| 20260502212505 | 66 | 208 | 6.1 | 11.3 | 0.00 | 0.00 | 0.00 | 36 | 1016.5 |
| 20260502212005 | 66 | 130 | 7.0 | 13.0 | 0.00 | 0.00 | 0.00 | 35 | 1016.5 |
| 20260502211516 | 65 | 175 | 7.0 | 13.0 | 0.00 | 0.00 | 0.00 | 36 | 1016.6 |
| 20260502211003 | 65 | 213 | 4.3 | 8.7 | 0.00 | 0.00 | 0.00 | 35 | 1016.5 |
| 20260502210504 | 65 | 181 | 3.5 | 7.0 | 0.00 | 0.00 | 0.00 | 36 | 1016.6 |
| 20260502210021 | 64 | 217 | 0.9 | 7.8 | 0.00 | 0.00 | 0.00 | 35 | 1016.7 |
| 20260502205503 | 64 | 98 | 1.7 | 7.8 | 0.00 | 0.00 | 0.00 | 36 | 1016.7 |
| 20260502205007 | 63 | 185 | 2.6 | 12.2 | 0.00 | 0.00 | 0.00 | 35 | 1016.7 |
| 20260502204512 | 64 | 155 | 7.0 | 12.2 | 0.00 | 0.00 | 0.00 | 35 | 1017.0 |
| 20260502204003 | 64 | 168 | 5.2 | 13.0 | 0.00 | 0.00 | 0.00 | 36 | 1016.9 |
| 20260502203506 | 64 | 171 | 7.0 | 13.0 | 0.00 | 0.00 | 0.00 | 34 | 1017.0 |
| 20260502203014 | 64 | 212 | 2.6 | 13.0 | 0.00 | 0.00 | 0.00 | 35 | 1017.0 |
| 20260502202503 | 64 | 156 | 2.6 | 14.8 | 0.00 | 0.00 | 0.00 | 35 | 1017.0 |
| 20260502202003 | 64 | 180 | 7.0 | 14.8 | 0.00 | 0.00 | 0.00 | 35 | 1017.0 |
| 20260502201511 | 64 | 121 | 5.2 | 13.9 | 0.00 | 0.00 | 0.00 | 34 | 1017.0 |
| 20260502201006 | 64 | 192 | 5.2 | 8.7 | 0.00 | 0.00 | 0.00 | 34 | 1016.9 |
| 20260502200506 | 64 | 219 | 2.6 | 7.8 | 0.00 | 0.00 | 0.00 | 36 | 1017.0 |
| 20260502200012 | 64 | 169 | 5.2 | 11.3 | 0.00 | 0.00 | 0.00 | 34 | 1016.9 |
| 20260502195505 | 64 | 288 | 2.6 | 12.2 | 0.00 | 0.00 | 0.00 | 33 | 1017.0 |
| 20260502195007 | 64 | 148 | 7.8 | 12.2 | 0.00 | 0.00 | 0.00 | 33 | 1017.0 |
| 20260502194510 | 63 | 213 | 7.0 | 13.9 | 0.00 | 0.00 | 0.00 | 34 | 1017.0 |
| 20260502194006 | 64 | 192 | 5.2 | 13.9 | 0.00 | 0.00 | 0.00 | 33 | 1017.0 |
| 20260502193507 | 64 | 162 | 7.8 | 13.0 | 0.00 | 0.00 | 0.00 | 33 | 1017.0 |
| 20260502193011 | 64 | 167 | 2.6 | 10.4 | 0.00 | 0.00 | 0.00 | 36 | 1017.0 |
| 20260502192506 | 64 | 219 | 5.2 | 10.4 | 0.00 | 0.00 | 0.00 | 34 | 1017.0 |
| 20260502192006 | 64 | 147 | 4.3 | 11.3 | 0.00 | 0.00 | 0.00 | 36 | 1016.9 |
| 20260502191519 | 64 | 150 | 4.3 | 12.2 | 0.00 | 0.00 | 0.00 | 34 | 1016.9 |
| 20260502191003 | 64 | 192 | 7.0 | 12.2 | 0.00 | 0.00 | 0.00 | 36 | 1017.0 |
| 20260502190507 | 63 | 168 | 5.2 | 11.3 | 0.00 | 0.00 | 0.00 | 35 | 1017.0 |
| 20260502190013 | 62 | 175 | 7.0 | 11.3 | 0.00 | 0.00 | 0.00 | 35 | 1016.9 |
| 20260502185507 | 62 | 163 | 4.3 | 11.3 | 0.00 | 0.00 | 0.00 | 35 | 1016.8 |
| 20260502185007 | 62 | 178 | 7.0 | 11.3 | 0.00 | 0.00 | 0.00 | 36 | 1016.9 |
| 20260502184515 | 63 | 143 | 5.2 | 8.7 | 0.00 | 0.00 | 0.00 | 36 | 1017.0 |
| 20260502184009 | 63 | 214 | 2.6 | 11.3 | 0.00 | 0.00 | 0.00 | 36 | 1017.0 |
| 20260502183507 | 63 | 186 | 6.1 | 11.3 | 0.00 | 0.00 | 0.00 | 33 | 1016.9 |
| 20260502183017 | 63 | 202 | 2.6 | 8.7 | 0.00 | 0.00 | 0.00 | 32 | 1016.7 |
| 20260502182508 | 63 | 207 | 3.5 | 7.8 | 0.00 | 0.00 | 0.00 | 37 | 1016.8 |
| 20260502182006 | 63 | 198 | 2.6 | 8.7 | 0.00 | 0.00 | 0.00 | 36 | 1016.8 |
| 20260502181511 | 63 | 162 | 4.3 | 16.5 | 0.00 | 0.00 | 0.00 | 37 | 1016.8 |
| 20260502181006 | 63 | 190 | 5.2 | 16.5 | 0.00 | 0.00 | 0.00 | 37 | 1016.8 |
| 20260502180507 | 64 | 209 | 3.5 | 16.5 | 0.00 | 0.00 | 0.00 | 32 | 1016.7 |
| 20260502170506 | 62 | 131 | 2.6 | 7.8 | 0.00 | 0.00 | 0.00 | 32 | 1016.4 |
| 20260502164008 | 61 | 261 | 2.6 | 5.2 | 0.00 | 0.00 | 0.00 | 33 | 1016.4 |
| 20260502163507 | 60 | 201 | 1.7 | 4.3 | 0.00 | 0.00 | 0.00 | 33 | 1016.4 |
| 20260502163018 | 59 | 262 | 0.9 | 3.5 | 0.00 | 0.00 | 0.00 | 42 | 1016.4 |
| 20260502162509 | 59 | 194 | 0.9 | 3.5 | 0.00 | 0.00 | 0.00 | 37 | 1016.5 |
| 20260502162003 | 58 | 207 | 1.7 | 3.5 | 0.00 | 0.00 | 0.00 | 36 | 1016.4 |
| 20260502161503 | 58 | 228 | 0.0 | 2.6 | 0.00 | 0.00 | 0.00 | 36 | 1016.3 |
| 20260502161004 | 57 | 206 | 0.0 | 2.6 | 0.00 | 0.00 | 0.00 | 40 | 1016.3 |
| 20260502160506 | 57 | 263 | 0.0 | 1.7 | 0.00 | 0.00 | 0.00 | 38 | 1016.3 |
| 20260502152011 | 56 | 207 | 0.9 | 1.7 | 0.00 | 0.00 | 0.00 | 46 | 1016.2 |
| 20260502151521 | 56 | 207 | 0.0 | 1.7 | 0.00 | 0.00 | 0.00 | 43 | 1016.1 |
| 20260502151007 | 56 | 219 | 0.0 | 0.9 | 0.00 | 0.00 | 0.00 | 44 | 1016.0 |
| 20260502150508 | 56 | 137 | 0.0 | 0.9 | 0.00 | 0.00 | 0.00 | 36 | 1016.0 |
| 20260502130508 | 51 | 115 | 0.9 | 2.6 | 0.00 | 0.00 | 0.00 | 30 | 1015.3 |
| 20260502123508 | 51 | 66 | 0.0 | 1.7 | 0.00 | 0.00 | 0.00 | 33 | 1015.6 |
| 20260502123012 | 51 | 66 | 0.0 | 1.7 | 0.00 | 0.00 | 0.00 | 32 | 1015.6 |
| 20260502122503 | 52 | 102 | 0.0 | 1.7 | 0.00 | 0.00 | 0.00 | 32 | 1015.6 |
| 20260502122010 | 52 | 123 | 0.0 | 2.6 | 0.00 | 0.00 | 0.00 | 30 | 1015.5 |
| 20260502121535 | 52 | 123 | 0.0 | 2.6 | 0.00 | 0.00 | 0.00 | 29 | 1015.6 |
| 20260502121008 | 52 | 140 | 1.7 | 2.6 | 0.00 | 0.00 | 0.00 | 33 | 1015.6 |
| 20260502120508 | 52 | 120 | 0.9 | 1.7 | 0.00 | 0.00 | 0.00 | 30 | 1015.5 |
| 20260502115514 | 51 | 105 | 0.0 | 2.6 | 0.00 | 0.00 | 0.00 | 30 | 1015.4 |
| 20260502115009 | 51 | 105 | 0.9 | 2.6 | 0.00 | 0.00 | 0.00 | 31 | 1015.4 |
| 20260502114522 | 52 | 105 | 0.0 | 3.5 | 0.00 | 0.00 | 0.00 | 30 | 1015.5 |
| 20260502114011 | 52 | 105 | 0.0 | 3.5 | 0.00 | 0.00 | 0.00 | 30 | 1015.6 |
| 20260502113508 | 53 | 123 | 0.0 | 1.7 | 0.00 | 0.00 | 0.00 | 28 | 1015.6 |
| 20260502113024 | 54 | 115 | 0.0 | 1.7 | 0.00 | 0.00 | 0.00 | 27 | 1015.6 |
| 20260502112508 | 54 | 115 | 0.0 | 1.7 | 0.00 | 0.00 | 0.00 | 26 | 1015.6 |
| 20260502112008 | 53 | 109 | 0.0 | 1.7 | 0.00 | 0.00 | 0.00 | 26 | 1015.7 |
| 20260502111511 | 53 | 100 | 0.0 | 1.7 | 0.00 | 0.00 | 0.00 | 26 | 1015.6 |
| 20260502110508 | 52 | 104 | 0.0 | 2.6 | 0.00 | 0.00 | 0.00 | 29 | 1015.7 |
| 20260502110023 | 52 | 113 | 0.9 | 2.6 | 0.00 | 0.00 | 0.00 | 30 | 1015.8 |
| 20260502105510 | 52 | 116 | 0.9 | 2.6 | 0.00 | 0.00 | 0.00 | 31 | 1015.7 |
| 20260502105015 | 51 | 108 | 1.7 | 2.6 | 0.00 | 0.00 | 0.00 | 31 | 1015.8 |
| 20260502104523 | 51 | 111 | 1.7 | 2.6 | 0.00 | 0.00 | 0.00 | 32 | 1015.8 |
| 20260502104006 | 51 | 111 | 0.9 | 2.6 | 0.00 | 0.00 | 0.00 | 32 | 1015.8 |
| 20260502103511 | 51 | 111 | 1.7 | 2.6 | 0.00 | 0.00 | 0.00 | 31 | 1015.9 |
| 20260502103024 | 51 | 110 | 1.7 | 2.6 | 0.00 | 0.00 | 0.00 | 31 | 1015.9 |
| 20260502102511 | 51 | 109 | 0.9 | 2.6 | 0.00 | 0.00 | 0.00 | 31 | 1015.9 |
| 20260502102014 | 51 | 110 | 1.7 | 2.6 | 0.00 | 0.00 | 0.00 | 31 | 1015.8 |
| 20260502101526 | 51 | 109 | 0.9 | 2.6 | 0.00 | 0.00 | 0.00 | 32 | 1015.9 |
| 20260502101008 | 51 | 107 | 0.9 | 2.6 | 0.00 | 0.00 | 0.00 | 31 | 1015.9 |
| 20260502100510 | 51 | 109 | 0.9 | 2.6 | 0.00 | 0.00 | 0.00 | 32 | 1015.9 |
| 20260502091526 | 51 | 94 | 0.9 | 2.6 | 0.00 | 0.00 | 0.00 | 43 | 1016.3 |
| 20260502091008 | 52 | 106 | 0.0 | 1.7 | 0.00 | 0.00 | 0.00 | 43 | 1016.3 |
| 20260502090510 | 51 | 106 | 0.0 | 1.7 | 0.00 | 0.00 | 0.00 | 45 | 1016.4 |